EW9273 Weather Reports


Display with metric or nautical units.
time (UTC)temp
F
wind
direction
speed
MPH
gust
MPH
rain 1hr
in
rain 24hr
in
rain mn
in
humidity
%
barometer
mb
20260901115035 78 190 0.0 0.0 0.00 0.00 0.00 81 1012.8
20260901114534 78 190 0.0 4.0 0.00 0.00 0.00 81 1012.8
20260901114033 78 190 1.0 4.0 0.00 0.00 0.00 81 1012.8
20260901113533 79 203 0.0 3.0 0.00 0.00 0.00 81 1012.8
20260901113038 79 155 0.0 2.0 0.00 0.00 0.00 81 1013.0
20260901112532 79 155 0.0 2.0 0.00 0.00 0.00 81 1013.0
20260901112032 79 155 0.0 2.0 0.00 0.00 0.00 81 1013.0
20260901111532 79 155 0.0 3.0 0.00 0.00 0.00 81 1013.0
20260901111031 79 155 1.0 3.0 0.00 0.00 0.00 81 1012.9
20260901110531 79 153 0.0 4.0 0.00 0.00 0.00 81 1012.8
20260901110032 79 153 1.0 7.0 0.00 0.00 0.00 81 1012.9
20260901105535 79 148 2.0 7.0 0.00 0.00 0.00 81 1012.9
20260901105031 79 209 0.0 2.0 0.00 0.00 0.00 80 1012.9
20260901104531 79 225 0.0 2.0 0.00 0.00 0.00 81 1012.9
20260901104031 79 154 0.0 1.0 0.00 0.00 0.00 81 1013.0
20260901103532 79 154 0.0 2.0 0.00 0.00 0.00 81 1013.0
20260901103034 79 154 0.0 4.0 0.00 0.00 0.00 81 1012.9
20260901102531 79 238 1.0 4.0 0.00 0.00 0.00 81 1013.0
20260901102031 79 212 0.0 3.0 0.00 0.00 0.00 81 1012.9
20260901101530 79 194 0.0 3.0 0.00 0.00 0.00 81 1012.8
20260901101030 79 187 1.0 2.0 0.00 0.00 0.00 81 1012.7
20260901100534 79 171 0.0 2.0 0.00 0.00 0.00 80 1012.7
20260901100030 79 144 0.0 2.0 0.00 0.00 0.00 80 1012.7
20260901095529 79 136 0.0 4.0 0.00 0.00 0.00 80 1012.7
20260901095031 79 136 1.0 4.0 0.00 0.00 0.00 80 1012.7
20260901094529 79 193 0.0 3.0 0.00 0.00 0.00 80 1012.7
20260901094029 79 193 1.0 3.0 0.00 0.00 0.00 80 1012.7
20260901093532 79 193 0.0 2.0 0.00 0.00 0.00 80 1012.7
20260901093031 79 193 0.0 1.0 0.00 0.00 0.00 80 1012.8
20260901092528 79 193 0.0 2.0 0.00 0.00 0.00 79 1012.9
20260901092028 79 193 0.0 2.0 0.00 0.00 0.00 79 1012.8
20260901091527 79 193 0.0 2.0 0.00 0.00 0.00 79 1012.8
20260901091027 79 193 0.0 2.0 0.00 0.00 0.00 79 1012.9
20260901090529 79 178 0.0 2.0 0.00 0.00 0.00 79 1012.9
20260901090027 79 178 0.0 2.0 0.00 0.00 0.00 79 1013.0
20260901085525 79 178 0.0 2.0 0.00 0.00 0.00 79 1013.0
20260901085025 79 178 0.0 2.0 0.00 0.00 0.00 78 1013.0
20260901084525 80 178 0.0 3.0 0.00 0.00 0.00 78 1013.0
20260901084026 80 211 1.0 5.0 0.00 0.00 0.00 78 1013.0
20260901083529 80 148 2.0 4.0 0.00 0.00 0.00 78 1012.9
20260901083025 80 140 1.0 3.0 0.00 0.00 0.00 78 1013.0
20260901082526 80 189 0.0 4.0 0.00 0.00 0.00 78 1013.0
20260901082024 80 189 0.0 4.0 0.00 0.00 0.00 78 1013.0
20260901081522 80 146 0.0 3.0 0.00 0.00 0.00 77 1012.9
20260901081026 80 146 1.0 5.0 0.00 0.00 0.00 77 1012.9
20260901080522 80 146 1.0 5.0 0.00 0.00 0.00 77 1012.9
20260901080035 80 123 0.0 3.0 0.00 0.00 0.00 77 1012.9
20260901075521 80 161 0.0 2.0 0.00 0.00 0.00 77 1013.0
20260901075024 80 182 0.0 4.0 0.00 0.00 0.00 77 1012.9
20260901074521 80 171 2.0 4.0 0.00 0.00 0.00 77 1012.9
20260901074021 80 165 1.0 4.0 0.00 0.00 0.00 77 1012.9
20260901073521 80 154 2.0 4.0 0.00 0.00 0.00 76 1012.8
20260901073020 80 168 2.0 4.0 0.00 0.00 0.00 76 1012.8
20260901072522 80 180 0.0 4.0 0.00 0.00 0.00 76 1012.9
20260901072022 80 155 2.0 5.0 0.00 0.00 0.00 76 1012.9
20260901071519 80 138 1.0 5.0 0.00 0.00 0.00 75 1013.0
20260901071017 80 170 1.0 5.0 0.00 0.00 0.00 75 1013.0
20260901070520 81 149 2.0 4.0 0.00 0.00 0.00 75 1012.9
20260901070020 81 163 1.0 3.0 0.00 0.00 0.00 74 1013.0
20260901065617 81 97 0.0 6.0 0.00 0.00 0.00 74 1013.0
20260901065017 81 139 2.0 6.0 0.00 0.00 0.00 74 1012.9
20260901064520 81 155 1.0 5.0 0.00 0.00 0.00 73 1012.9
20260901064016 81 147 1.0 7.0 0.00 0.00 0.00 73 1012.8
20260901063515 81 114 1.0 7.0 0.00 0.00 0.00 72 1012.9
20260901063029 81 146 1.0 4.0 0.00 0.00 0.00 72 1012.9
20260901062513 81 158 1.0 3.0 0.00 0.00 0.00 71 1012.9
20260901062014 82 147 0.0 4.0 0.00 0.00 0.00 71 1012.9
20260901061512 82 169 0.0 4.0 0.00 0.00 0.00 71 1012.9
20260901061011 82 86 0.0 4.0 0.00 0.00 0.00 70 1012.9
20260901060511 82 142 2.0 4.0 0.00 0.00 0.00 70 1012.8
20260901060010 82 168 0.0 6.0 0.00 0.00 0.00 70 1012.7
20260901055509 82 138 1.0 6.0 0.00 0.00 0.00 70 1012.6
20260901055011 82 143 1.0 3.0 0.00 0.00 0.00 69 1012.6
20260901054508 82 101 1.0 5.0 0.00 0.00 0.00 69 1012.6
20260901054008 82 85 1.0 5.0 0.00 0.00 0.00 69 1012.5
20260901053509 83 134 1.0 3.0 0.00 0.00 0.00 68 1012.5
20260901053004 83 112 0.0 4.0 0.00 0.00 0.00 68 1012.4
20260901052504 83 17 0.0 3.0 0.00 0.00 0.00 68 1012.4
20260901052005 83 36 1.0 3.0 0.00 0.00 0.00 67 1012.5
20260901051502 83 162 1.0 5.0 0.00 0.00 0.00 67 1012.5
20260901051001 83 65 1.0 7.0 0.00 0.00 0.00 66 1012.5
20260901050600 83 159 1.0 7.0 0.00 0.00 0.00 66 1012.4
20260901050100 83 94 1.0 8.0 0.00 0.00 0.00 66 1012.3
20260901045559 84 85 0.0 4.0 0.00 0.00 0.00 67 1012.3
20260901045500 84 85 1.0 4.0 0.00 0.00 0.00 66 1012.3
20260901045100 84 58 1.0 6.0 0.00 0.00 0.00 66 1012.3
20260901044603 84 140 2.0 8.0 0.00 0.00 0.00 66 1012.0
20260901044058 84 112 3.0 10.0 0.00 0.00 0.00 65 1012.0
20260901043558 84 176 3.0 11.0 0.00 0.00 0.00 65 1012.1
20260901043058 85 104 3.0 11.0 0.00 0.00 0.00 65 1012.0
20260901042557 85 147 3.0 11.0 0.00 0.00 0.00 64 1012.0
20260901042058 85 26 1.0 7.0 0.00 0.00 0.00 63 1012.0
20260901041559 85 142 3.0 8.0 0.00 0.00 0.00 63 1012.1
20260901041056 85 134 2.0 8.0 0.00 0.00 0.00 63 1012.0
20260901040556 85 173 2.0 5.0 0.00 0.00 0.00 62 1012.1
20260901040056 86 162 1.0 10.0 0.00 0.00 0.00 62 1012.1
20260901035557 86 167 3.0 10.0 0.00 0.00 0.00 62 1012.1
20260901035056 86 104 4.0 9.0 0.00 0.00 0.00 61 1012.0
20260901034556 86 70 4.0 8.0 0.00 0.00 0.00 61 1012.0
20260901034055 86 107 3.0 11.0 0.00 0.00 0.00 60 1012.0
20260901033555 87 63 4.0 16.0 0.00 0.00 0.00 60 1011.9
20260901033056 87 173 4.0 16.0 0.00 0.00 0.00 60 1011.9
20260901032555 87 159 4.0 15.0 0.00 0.00 0.00 59 1011.9
20260901032055 87 126 3.0 10.0 0.00 0.00 0.00 59 1011.7
20260901031555 88 103 3.0 11.0 0.00 0.00 0.00 58 1011.7
20260901031054 88 152 3.0 8.0 0.00 0.00 0.00 58 1011.6
20260901030555 88 167 3.0 10.0 0.00 0.00 0.00 57 1011.5
20260901030055 88 175 2.0 11.0 0.00 0.00 0.00 57 1011.4
20260901025555 88 140 3.0 11.0 0.00 0.00 0.00 56 1011.3
20260901025055 89 149 2.0 9.0 0.00 0.00 0.00 55 1011.2
20260901024554 89 125 2.0 11.0 0.00 0.00 0.00 55 1011.1
20260901024055 89 167 3.0 11.0 0.00 0.00 0.00 54 1011.0
20260901023554 89 90 3.0 8.0 0.00 0.00 0.00 54 1010.9
20260901023054 89 86 3.0 8.0 0.00 0.00 0.00 53 1010.8
20260901022553 90 113 3.0 10.0 0.00 0.00 0.00 53 1010.8
20260901022053 90 114 2.0 10.0 0.00 0.00 0.00 53 1010.7
20260901021553 90 171 3.0 9.0 0.00 0.00 0.00 53 1010.7
20260901021053 90 109 4.0 7.0 0.00 0.00 0.00 53 1010.6
20260901020553 90 28 2.0 7.0 0.00 0.00 0.00 53 1010.6
20260901020055 90 97 2.0 6.0 0.00 0.00 0.00 53 1010.5
20260901015552 90 92 1.0 7.0 0.00 0.00 0.00 53 1010.4
20260901015053 90 107 1.0 8.0 0.00 0.00 0.00 53 1010.4
20260901014554 91 107 2.0 8.0 0.00 0.00 0.00 52 1010.3
20260901014052 91 61 2.0 9.0 0.00 0.00 0.00 52 1010.2
20260901013554 91 76 2.0 9.0 0.00 0.00 0.00 52 1010.2
20260901013102 91 119 3.0 11.0 0.00 0.00 0.00 52 1010.1
20260901012552 91 110 4.0 13.0 0.00 0.00 0.00 51 1010.0
20260901012050 92 49 3.0 13.0 0.00 0.00 0.00 51 1009.9
20260901011550 92 115 3.0 10.0 0.00 0.00 0.00 50 1009.9
20260901011050 92 138 4.0 9.0 0.00 0.00 0.00 50 1009.8
20260901010551 93 136 3.0 14.0 0.00 0.00 0.00 49 1009.7
20260901010052 93 146 4.0 14.0 0.00 0.00 0.00 48 1009.7
20260901005553 94 86 5.0 14.0 0.00 0.00 0.00 47 1009.7
20260901005049 94 115 5.0 14.0 0.00 0.00 0.00 46 1009.7
20260901004550 95 63 4.0 10.0 0.00 0.00 0.00 44 1009.6
20260901004049 95 222 1.0 13.0 0.00 0.00 0.00 41 1009.5
20260901003551 96 49 4.0 13.0 0.00 0.00 0.00 40 1009.5
20260901003049 96 92 3.0 14.0 0.00 0.00 0.00 40 1009.5
20260901002549 96 85 5.0 14.0 0.00 0.00 0.00 40 1009.4
20260901002051 96 95 4.0 11.0 0.00 0.00 0.00 40 1009.3
20260901001549 96 57 6.0 11.0 0.00 0.00 0.00 39 1009.3
20260901001048 96 59 4.0 10.0 0.00 0.00 0.00 39 1009.3
20260901000650 96 28 6.0 10.0 0.00 0.00 0.00 39 1009.3
20260901000048 97 107 4.0 12.0 0.00 0.00 0.00 39 1009.2
20260831235548 97 116 5.0 14.0 0.00 0.00 0.00 38 1009.2
20260831235049 98 124 5.0 14.0 0.00 0.00 0.00 38 1009.1
20260831234552 98 57 2.0 5.0 0.00 0.00 0.00 37 1009.2
20260831234051 98 73 1.0 4.0 0.00 0.00 0.00 38 1009.1
20260831233547 98 131 1.0 4.0 0.00 0.00 0.00 39 1009.2
20260831233054 97 104 1.0 6.0 0.00 0.00 0.00 38 1009.2
20260831232547 97 129 1.0 9.0 0.00 0.00 0.00 39 1009.1
20260831232047 96 86 3.0 9.0 0.00 0.00 0.00 39 1009.1
20260831231549 96 76 1.0 4.0 0.00 0.00 0.00 39 1009.2
20260831231049 96 102 2.0 5.0 0.00 0.00 0.00 39 1009.2
20260831230545 96 14 2.0 5.0 0.00 0.00 0.00 40 1009.2
20260831230045 96 90 2.0 7.0 0.00 0.00 0.00 39 1009.3
20260831225544 96 82 2.0 7.0 0.00 0.00 0.00 40 1009.3
20260831225046 97 87 1.0 6.0 0.00 0.00 0.00 39 1009.3
20260831224544 97 121 2.0 12.0 0.00 0.00 0.00 39 1009.4
20260831224044 98 61 3.0 12.0 0.00 0.00 0.00 38 1009.4
20260831223544 99 77 5.0 11.0 0.00 0.00 0.00 37 1009.4
20260831223052 99 118 3.0 11.0 0.00 0.00 0.00 37 1009.4
20260831222543 98 59 0.0 9.0 0.00 0.00 0.00 39 1009.5
20260831222041 99 58 4.0 9.0 0.00 0.00 0.00 39 1009.5
20260831221541 100 116 1.0 6.0 0.00 0.00 0.00 38 1009.5
20260831221041 100 293 1.0 6.0 0.00 0.00 0.00 38 1009.5
20260831220544 98 157 1.0 7.0 0.00 0.00 0.00 39 1009.6
20260831220042 98 166 4.0 7.0 0.00 0.00 0.00 39 1009.7
20260831215540 100 150 1.0 9.0 0.00 0.00 0.00 37 1009.8
20260831215039 99 201 2.0 9.0 0.00 0.00 0.00 38 1010.0
20260831214554 99 110 4.0 9.0 0.00 0.00 0.00 38 1010.0
20260831214038 99 29 4.0 12.0 0.00 0.00 0.00 38 1010.1
20260831213538 100 192 4.0 12.0 0.00 0.00 0.00 39 1010.1
20260831213037 100 138 2.0 7.0 0.00 0.00 0.00 39 1010.1
20260831212536 100 101 3.0 7.0 0.00 0.00 0.00 38 1010.2
20260831212038 100 32 2.0 6.0 0.00 0.00 0.00 38 1010.3
20260831211535 99 76 2.0 6.0 0.00 0.00 0.00 39 1010.3
20260831211033 99 97 4.0 6.0 0.00 0.00 0.00 38 1010.4
20260831210532 99 88 2.0 6.0 0.00 0.00 0.00 39 1010.5
20260831210038 99 98 2.0 6.0 0.00 0.00 0.00 40 1010.5
20260831205532 99 238 3.0 10.0 0.00 0.00 0.00 39 1010.6
20260831205031 99 158 2.0 11.0 0.00 0.00 0.00 39 1010.7
20260831204533 99 16 2.0 9.0 0.00 0.00 0.00 40 1010.8
20260831204031 99 99 2.0 11.0 0.00 0.00 0.00 41 1010.9
20260831203529 99 188 3.0 11.0 0.00 0.00 0.00 41 1010.9
20260831203029 99 23 1.0 6.0 0.00 0.00 0.00 41 1011.0
20260831202528 100 69 2.0 5.0 0.00 0.00 0.00 40 1011.2
20260831202027 99 40 2.0 13.0 0.00 0.00 0.00 41 1011.2
20260831201526 99 76 3.0 13.0 0.00 0.00 0.00 40 1011.4
20260831201026 100 30 4.0 10.0 0.00 0.00 0.00 39 1011.4
20260831200524 100 67 2.0 10.0 0.00 0.00 0.00 40 1011.5
20260831200025 99 134 3.0 14.0 0.00 0.00 0.00 41 1011.5
20260831195522 98 185 3.0 14.0 0.00 0.00 0.00 40 1011.7
20260831195022 99 165 1.0 8.0 0.00 0.00 0.00 41 1011.7
20260831194520 98 31 1.0 8.0 0.00 0.00 0.00 41 1011.9
20260831194020 99 69 2.0 8.0 0.00 0.00 0.00 42 1012.0
20260831193518 98 329 2.0 9.0 0.00 0.00 0.00 43 1012.0
20260831193029 96 188 2.0 10.0 0.00 0.00 0.00 45 1012.1
20260831192518 95 107 3.0 10.0 0.00 0.00 0.00 45 1012.2
20260831192017 96 66 3.0 9.0 0.00 0.00 0.00 44 1012.2
20260831191517 98 33 3.0 8.0 0.00 0.00 0.00 43 1012.3
20260831191016 96 51 1.0 8.0 0.00 0.00 0.00 43 1012.4
20260831190516 98 82 1.0 11.0 0.00 0.00 0.00 44 1012.5
20260831190023 96 173 5.0 11.0 0.00 0.00 0.00 44 1012.6
20260831185518 96 155 1.0 7.0 0.00 0.00 0.00 44 1012.6
20260831185015 97 101 2.0 7.0 0.00 0.00 0.00 43 1012.7
20260831184514 98 107 2.0 6.0 0.00 0.00 0.00 42 1012.6
20260831184014 96 182 2.0 9.0 0.00 0.00 0.00 45 1012.7
20260831183513 97 71 3.0 9.0 0.00 0.00 0.00 44 1012.7
20260831183014 97 120 2.0 9.0 0.00 0.00 0.00 46 1012.8
20260831182514 95 57 5.0 9.0 0.00 0.00 0.00 46 1012.9
20260831182012 94 120 3.0 9.0 0.00 0.00 0.00 47 1012.8
20260831181515 93 68 2.0 10.0 0.00 0.00 0.00 48 1012.8
20260831181011 94 54 3.0 10.0 0.00 0.00 0.00 48 1012.8
20260831180509 94 175 3.0 7.0 0.00 0.00 0.00 48 1012.9
20260831180011 95 228 1.0 10.0 0.00 0.00 0.00 48 1013.0
20260831175510 96 36 2.0 10.0 0.00 0.00 0.00 47 1013.0
20260831175009 94 103 2.0 10.0 0.00 0.00 0.00 49 1013.2
20260831174509 93 144 2.0 8.0 0.00 0.00 0.00 50 1013.3
20260831174008 94 177 4.0 9.0 0.00 0.00 0.00 48 1013.3
20260831173506 95 214 1.0 8.0 0.00 0.00 0.00 48 1013.4
20260831173014 94 135 3.0 9.0 0.00 0.00 0.00 48 1013.4
20260831172505 92 41 2.0 9.0 0.00 0.00 0.00 52 1013.4
20260831172004 93 119 2.0 8.0 0.00 0.00 0.00 50 1013.5
20260831171506 94 159 1.0 5.0 0.00 0.00 0.00 51 1013.5
20260831171005 93 16 0.0 6.0 0.00 0.00 0.00 52 1013.5
20260831170501 93 148 2.0 6.0 0.00 0.00 0.00 52 1013.6
20260831170100 92 221 1.0 5.0 0.00 0.00 0.00 54 1013.5
20260831165600 91 112 0.0 8.0 0.00 0.00 0.00 55 1013.6
20260831165059 91 151 4.0 8.0 0.00 0.00 0.00 55 1013.6
20260831164610 91 11 2.0 7.0 0.00 0.00 0.00 55 1013.7
20260831164057 92 188 2.0 7.0 0.00 0.00 0.00 54 1013.7
20260831163557 91 126 2.0 5.0 0.00 0.00 0.00 57 1013.7
20260831163059 90 131 1.0 8.0 0.00 0.00 0.00 58 1013.6
20260831162555 90 249 2.0 9.0 0.00 0.00 0.00 58 1013.6
20260831162053 90 144 3.0 9.0 0.00 0.00 0.00 58 1013.7
20260831161603 89 61 2.0 8.0 0.00 0.00 0.00 60 1013.7
20260831161051 88 129 3.0 8.0 0.00 0.00 0.00 61 1013.7
20260831160548 88 185 3.0 11.0 0.00 0.00 0.00 62 1013.7
20260831155548 88 116 1.0 5.0 0.00 0.00 0.00 64 1013.9
20260831155045 87 135 1.0 9.0 0.00 0.00 0.00 64 1013.8
20260831154552 87 196 4.0 9.0 0.00 0.00 0.00 64 1013.8
20260831154044 87 150 2.0 8.0 0.00 0.00 0.00 65 1013.7
20260831153540 87 97 1.0 9.0 0.00 0.00 0.00 66 1013.6
20260831153042 86 144 1.0 9.0 0.00 0.00 0.00 66 1013.6
20260831152543 86 150 3.0 8.0 0.00 0.00 0.00 66 1013.6
20260831152037 86 186 3.0 9.0 0.00 0.00 0.00 67 1013.6
20260831151537 86 71 3.0 9.0 0.00 0.00 0.00 67 1013.6
20260831151034 86 140 2.0 7.0 0.00 0.00 0.00 68 1013.6
20260831150533 85 124 3.0 7.0 0.00 0.00 0.00 70 1013.6
20260831150031 85 155 3.0 6.0 0.00 0.00 0.00 69 1013.6
20260831145530 85 135 3.0 6.0 0.00 0.00 0.00 71 1013.6
20260831145029 84 157 0.0 6.0 0.00 0.00 0.00 73 1013.6
20260831144528 83 175 2.0 7.0 0.00 0.00 0.00 74 1013.6
20260831144027 83 138 2.0 7.0 0.00 0.00 0.00 73 1013.6
20260831143525 83 142 2.0 6.0 0.00 0.00 0.00 75 1013.5
20260831143025 82 196 1.0 6.0 0.00 0.00 0.00 77 1013.5
20260831142523 82 153 1.0 6.0 0.00 0.00 0.00 78 1013.5
20260831142023 82 141 1.0 6.0 0.00 0.00 0.00 78 1013.5
20260831141522 82 140 2.0 6.0 0.00 0.00 0.00 79 1013.5
20260831141021 81 144 1.0 6.0 0.00 0.00 0.00 80 1013.5
20260831140520 81 138 0.0 5.0 0.00 0.00 0.00 80 1013.5
20260831140020 81 71 2.0 5.0 0.00 0.00 0.00 80 1013.4
20260831135520 81 66 1.0 4.0 0.00 0.00 0.00 81 1013.3
20260831135020 81 72 1.0 4.0 0.00 0.00 0.00 81 1013.3
20260831134519 81 182 0.0 4.0 0.00 0.00 0.00 83 1013.3
20260831134016 80 67 0.0 4.0 0.00 0.00 0.00 84 1013.3
20260831133519 79 59 1.0 4.0 0.00 0.00 0.00 84 1013.2
20260831133015 79 59 1.0 4.0 0.00 0.00 0.00 84 1013.2
20260831132514 79 76 2.0 3.0 0.00 0.00 0.00 85 1013.2
20260831132014 78 76 0.0 2.0 0.00 0.00 0.00 85 1013.3
20260831131512 78 76 0.0 4.0 0.00 0.00 0.00 85 1013.2
20260831131011 78 76 0.0 4.0 0.00 0.00 0.00 85 1013.1
20260831130510 78 87 0.0 3.0 0.00 0.00 0.00 85 1013.1
20260831130009 78 161 0.0 2.0 0.00 0.00 0.00 85 1013.1
20260831125509 77 161 0.0 1.0 0.00 0.00 0.00 85 1013.0
20260831125009 77 161 0.0 1.0 0.00 0.00 0.00 85 1013.0
20260831124508 77 161 0.0 2.0 0.00 0.00 0.00 85 1013.0
20260831124006 77 161 0.0 2.0 0.00 0.00 0.00 85 1012.9
20260831123506 77 161 0.0 0.0 0.00 0.00 0.00 85 1012.8
20260831123004 77 161 0.0 1.0 0.00 0.00 0.00 85 1012.8
20260831122504 77 161 0.0 1.0 0.00 0.00 0.00 85 1012.8
20260831122003 77 161 0.0 1.0 0.00 0.00 0.00 85 1012.8
20260831121503 77 161 0.0 0.0 0.00 0.00 0.00 85 1012.8
20260831121003 77 161 0.0 0.0 0.00 0.00 0.00 85 1012.7
20260831120504 77 161 0.0 0.0 0.00 0.00 0.00 85 1012.7
20260831120008 77 161 0.0 0.0 0.00 0.00 0.00 85 1012.6
20260831115502 77 161 0.0 0.0 0.00 0.00 0.00 84 1012.5